Location: Newark
(60.5925°N, 45.5911°E)
Time: 09:04:28
(UTC+00:00)

ISS - Pass Details

Date: 24 September 2019
Orbit: 411 x 421 km, 51.6° (Epoch: 14 October)

Event Time Altitude Azimuth Distance (km) Brightness Sun altitude
Rises 16:16:27 0° 219° (SW) 2,340 0.3 -10.9°
Reaches altitude 10° 16:19:21 10° 191° (S) 1,480 -1.1 -11.3°
Maximum altitude 16:21:01 13° 161° (SSE) 1,297 -1.6 -11.5°
Enters shadow 16:21:34 13° 150° (SSE) 1,319 -1.7 -11.5°
